TimeEST,TemperatureF,Dew PointF,Humidity,Sea Level PressureIn,VisibilityMPH,Wind Direction,Wind SpeedMPH,Gust SpeedMPH,PrecipitationIn,Events,Conditions,WindDirDegrees,DateUTC
12:52 AM,16.0,8.1,71,30.45,10.0,SSW,5.8,-,N/A,,Clear,210,2013-12-08 05:52:00
1:52 AM,14.0,8.1,77,30.46,10.0,Calm,Calm,-,N/A,,Clear,0,2013-12-08 06:52:00
2:52 AM,16.0,8.1,71,30.47,10.0,SW,4.6,-,N/A,,Clear,230,2013-12-08 07:52:00
3:52 AM,18.0,6.1,60,30.48,10.0,WSW,5.8,-,N/A,,Clear,250,2013-12-08 08:52:00
4:52 AM,15.1,6.1,68,30.50,10.0,SW,4.6,-,N/A,,Clear,220,2013-12-08 09:52:00
5:52 AM,15.1,5.0,64,30.51,10.0,SW,3.5,-,N/A,,Partly Cloudy,220,2013-12-08 10:52:00
6:52 AM,10.9,5.0,77,30.54,10.0,Calm,Calm,-,N/A,,Clear,0,2013-12-08 11:52:00
7:52 AM,14.0,7.0,74,30.57,10.0,SW,3.5,-,N/A,,Overcast,220,2013-12-08 12:52:00
8:52 AM,18.0,7.0,62,30.56,10.0,Variable,3.5,-,N/A,,Partly Cloudy,0,2013-12-08 13:52:00
9:52 AM,21.0,5.0,50,30.58,10.0,Variable,4.6,-,N/A,,Clear,0,2013-12-08 14:52:00
10:52 AM,21.9,5.0,48,30.58,10.0,Calm,Calm,-,N/A,,Clear,0,2013-12-08 15:52:00
11:52 AM,23.0,6.1,48,30.54,10.0,West,3.5,-,N/A,,Partly Cloudy,270,2013-12-08 16:52:00
12:52 PM,24.1,6.1,46,30.54,10.0,West,5.8,-,N/A,,Mostly Cloudy,270,2013-12-08 17:52:00
1:52 PM,24.1,6.1,46,30.53,10.0,Variable,6.9,-,N/A,,Scattered Clouds,0,2013-12-08 18:52:00
2:52 PM,25.0,5.0,43,30.51,10.0,West,5.8,-,N/A,,Partly Cloudy,260,2013-12-08 19:52:00
3:52 PM,23.0,5.0,46,30.54,10.0,Calm,Calm,-,N/A,,Clear,0,2013-12-08 20:52:00
4:52 PM,19.0,9.0,65,30.55,10.0,Calm,Calm,-,N/A,,Clear,0,2013-12-08 21:52:00
5:52 PM,17.1,10.0,74,30.56,10.0,Calm,Calm,-,N/A,,Clear,0,2013-12-08 22:52:00
6:52 PM,15.1,10.0,80,30.55,10.0,Calm,Calm,-,N/A,,Partly Cloudy,0,2013-12-08 23:52:00
7:52 PM,17.1,10.0,74,30.54,10.0,Calm,Calm,-,N/A,,Scattered Clouds,0,2013-12-09 00:52:00
8:52 PM,19.0,10.9,71,30.53,10.0,Calm,Calm,-,N/A,,Overcast,0,2013-12-09 01:52:00
9:52 PM,19.0,12.0,74,30.54,10.0,Calm,Calm,-,N/A,,Overcast,0,2013-12-09 02:52:00
10:52 PM,19.9,12.9,74,30.52,10.0,Calm,Calm,-,N/A,,Overcast,0,2013-12-09 03:52:00
11:52 PM,19.9,10.9,68,30.49,10.0,Calm,Calm,-,N/A,,Overcast,0,2013-12-09 04:52:00